User: anonymous
Location: Unspecified
(0.0000°N, 0.0000°E)
Time: 21:38:06
(UTC+02:00)
Language:

Cosmos 773 Rocket - Orbit

View from above orbital plane
View from above orbital plane
View from above satellite
View from above satellite

Ground track
Ground track

The orbit data is extracted from the following two-line orbital elements,

1 08344U 75094B   14233.57661628  .00000064  00000-0  29408-4 0  5407
2 08344 074.0567 224.3543 0021719 020.6258 114.9680 14.38774511 37455
Epoch (UTC): 21 August 2014 13:50:19
Eccentricity: 0.0021719
inclination: 74.0567°
perigee height: 747 km
apogee height: 778 km
right ascension of ascending node: 224.3543°
argument of perigee: 20.6258°
revolutions per day: 14.38774511
mean anomaly at epoch: 114.9680°
orbit number at epoch: 3745

The dashed part of the orbit path shows where the satellite is in the earth's shadow,  

DLR